Preview of NWS' New Version of Forecast
This preview is not operational and should not be used for support decisions.

Regional Weather Roundup (RWR)

Issued by National Weather Service (NWS)

                            
000
ASUS45 KABQ 251510
RWRNM 
NEW MEXICO REGIONAL WEATHER ROUNDUP
NATIONAL WEATHER SERVICE ALBUQUERQUE NM
900 AM MDT SUN AUG 25 2019

NOTE: "FAIR" MEANS FEW OR NO CLOUDS BELOW 12,000 FEET AGL WITH NO
       SIGNIFICANT WEATHER OR OBSTRUCTIONS TO VISION.

      THIS PRODUCT IS RELEASED AS TWO VERSIONS.  ONE VERSION NEAR
      THE TOP OF THE HOUR CONTAINING PRELIMINARY DATA FROM ALBUQUERQUE
      AND OTHER STATIONS.  A FINAL VERSION WITH ADDITIONAL DATA IS 
      ISSUED ABOUT 10 MINUTES AFTER THE HOUR.
 
NMZ501-503-504-510>518-251600-
NORTHWEST PLATEAU/NORTHCENTRAL MOUNTAINS
  
CITY           SKY/WX    TMP DP  RH WIND       PRES   REMARKS
FARMINGTON     FAIR      67  33  28 E8        30.18R                  
LOS ALAMOS       N/A     68  31  25 E5        30.29R                  
SANTA FE       FAIR      74  33  22 N6        30.22S                  
TAOS           FAIR      65  35  33 CALM      30.30S                  
ANGEL FIRE     FAIR      57  39  51 CALM      30.37S                  

$$
NMZ402-403-502-505>509-251600-
WESTCENTRAL MOUNTAINS/SOUTHWEST MOUNTAINS
  
CITY           SKY/WX    TMP DP  RH WIND       PRES   REMARKS
GALLUP         FAIR      71  47  42 SW9       30.30S                  
GRANTS         FAIR      69  32  25 CALM      30.31S                  
SILVER CITY    FAIR      76  57  52 NW16      30.20R                  

$$
NMZ407-409-411-412-251600-
SOUTHERN DESERTS
  
CITY           SKY/WX    TMP DP  RH WIND       PRES   REMARKS
DEMING         FAIR      78  62  57 SW6       30.13R                  
LAS CRUCES     FAIR      80  58  47 N6        30.12S                  
HOLLOMAN AFB   FAIR      80  61  51 SE7       30.10R                  
ALAMOGORDO     FAIR      81  59  47 S10       30.09S                  
T OR C         FAIR      82  48  30 CALM      30.14R                  

$$
NMZ519>523-251600-
CENTRAL VALLEYS/CENTRAL HIGHLANDS
  
CITY           SKY/WX    TMP DP  RH WIND       PRES   REMARKS
ALBUQUERQUE    FAIR      75  35  23 S3        30.17S                  
DOUBLE EAGLE   MOSUNNY   75  34  22 CALM      30.21R                  
MORIARTY ARPT  FAIR      78  35  21 N6        30.21S                  
CLINES CORNERS FAIR      74  30  19 NW18      30.26S                  
BELEN          FAIR      77  31  18 NE3       30.18R                  
SOCORRO        FAIR      82  44  26 N5        30.14S                  

$$
NMZ524>526-539-540-251600-
SOUTHCENTRAL MOUNTAINS
  
CITY           SKY/WX    TMP DP  RH WIND       PRES   REMARKS
RUIDOSO        FAIR      75  39  27 NW16      30.27S                  

$$
NMZ527>531-251600-
NORTHEAST HIGHLANDS/NORTHEAST PLAINS
  
CITY           SKY/WX    TMP DP  RH WIND       PRES   REMARKS
RATON          FAIR      69  44  40 E5        30.14S                  
CLAYTON        FAIR      84  51  31 NW12      30.02R                  

$$
NMZ532>537-251600-
EASTCENTRAL PLAINS
  
CITY           SKY/WX    TMP DP  RH WIND       PRES   REMARKS
SANTA ROSA     FAIR      82  44  25 NW5       30.03S                  
TUCUMCARI      FAIR      79  53  40 NW6       29.96R                  
CANNON AFB     FAIR      78  55  45 NW12      29.99S                  
CLOVIS AIRPORT FAIR      78  60  53 NW13      29.98R                  

$$
NMZ028-029-538-251600-
SOUTHEAST PLAINS
  
CITY           SKY/WX    TMP DP  RH WIND       PRES   REMARKS
ROSWELL        FAIR      81  52  36 CALM      29.96R                  
ARTESIA        FAIR      91  55  29 W12       29.97S                  
CARLSBAD       FAIR      84  58  40 SE5       29.93S                  
HOBBS          SUNNY     84  57  39 SW12      29.97S                  


$$